{"data":{"norad_id":54679,"epoch":"2026-09-20T04:20:04.958880Z","epoch_age_seconds":49507,"freshness":"FRESH","line1":"1 54679U 22166AP  26263.18061295  .00000051  00000+0  88934-4 0  9990","line2":"2 54679  87.9278 225.0382 0002206  95.2949 264.8437 13.23187853183977","mean_motion":13.23187853,"eccentricity":0.0002206,"inclination_deg":87.9278,"raan_deg":225.0382,"arg_perigee_deg":95.2949,"mean_anomaly_deg":264.8437,"bstar":8.8934e-5,"rev_number":18397,"period_min":108.82808489627,"perigee_km":1170.9023380343,"apogee_km":1174.2337090907,"semimajor_km":7550.7050235625,"source":"CELESTRAK","updated_at":"2026-09-20T09:00:44.749022Z"}}